| time (UTC) | temp C | wind direction | speed KPH | gust KPH | rain 1hr cm | rain 24hr cm | rain mn cm | humidity % | barometer mb |
| 20260506103534 | 10 | 358 | 9.7 | 16.1 | 0.00 | 0.00 | 0.00 | 86 | 1011.2 |
| 20260506103034 | 10 | 35 | 8.0 | 14.5 | 0.00 | 0.00 | 0.00 | 86 | 1011.0 |
| 20260506102533 | 10 | 16 | 9.7 | 14.5 | 0.00 | 0.00 | 0.00 | 87 | 1010.9 |
| 20260506102034 | 10 | 345 | 8.0 | 16.1 | 0.00 | 0.00 | 0.00 | 87 | 1011.0 |
| 20260506101533 | 10 | 10 | 6.4 | 17.7 | 0.00 | 0.00 | 0.00 | 87 | 1011.2 |
| 20260506101033 | 10 | 31 | 6.4 | 17.7 | 0.00 | 0.00 | 0.00 | 87 | 1011.2 |
| 20260506100533 | 10 | 340 | 4.8 | 8.0 | 0.00 | 0.00 | 0.00 | 87 | 1010.9 |
| 20260506100032 | 10 | 0 | 3.2 | 8.0 | 0.00 | 0.00 | 0.00 | 87 | 1010.8 |
| 20260506095533 | 10 | 0 | 4.8 | 9.7 | 0.00 | 0.00 | 0.00 | 87 | 1010.8 |
| 20260506095032 | 10 | 0 | 6.4 | 9.7 | 0.00 | 0.00 | 0.00 | 87 | 1010.4 |
| 20260506094824 | 10 | 0 | 4.8 | 11.3 | 0.00 | 0.00 | 0.00 | 86 | 1010.2 |
| 20260506094032 | 10 | 353 | 8.0 | 11.3 | 0.00 | 0.00 | 0.00 | 86 | 1010.1 |
| 20260506093532 | 10 | 20 | 6.4 | 11.3 | 0.00 | 0.00 | 0.00 | 86 | 1010.1 |
| 20260506093032 | 10 | 6 | 4.8 | 11.3 | 0.00 | 0.00 | 0.00 | 86 | 1010.1 |
| 20260506092532 | 10 | 358 | 6.4 | 9.7 | 0.00 | 0.00 | 0.00 | 86 | 1010.2 |
| 20260506092033 | 10 | 353 | 6.4 | 8.0 | 0.00 | 0.00 | 0.00 | 86 | 1010.2 |
| 20260506091532 | 10 | 343 | 4.8 | 9.7 | 0.00 | 0.00 | 0.00 | 86 | 1010.3 |
| 20260506091033 | 11 | 0 | 4.8 | 9.7 | 0.00 | 0.00 | 0.00 | 86 | 1010.2 |
| 20260506090531 | 11 | 0 | 3.2 | 8.0 | 0.00 | 0.00 | 0.00 | 85 | 1010.2 |
| 20260506090031 | 11 | 0 | 3.2 | 9.7 | 0.00 | 0.00 | 0.00 | 85 | 1010.2 |
| 20260506085824 | 11 | 351 | 6.4 | 9.7 | 0.00 | 0.00 | 0.00 | 85 | 1010.2 |
| 20260506085325 | 11 | 358 | 6.4 | 9.7 | 0.00 | 0.00 | 0.00 | 85 | 1010.3 |
| 20260506084531 | 11 | 0 | 3.2 | 6.4 | 0.00 | 0.00 | 0.00 | 85 | 1010.0 |
| 20260506084033 | 11 | 21 | 1.6 | 8.0 | 0.00 | 0.00 | 0.00 | 85 | 1010.1 |
| 20260506083814 | 11 | 21 | 1.6 | 9.7 | 0.00 | 0.00 | 0.00 | 85 | 1009.9 |
| 20260506083031 | 11 | 49 | 4.8 | 11.3 | 0.00 | 0.00 | 0.00 | 85 | 1010.0 |
| 20260506082532 | 11 | 0 | 8.0 | 11.3 | 0.00 | 0.00 | 0.00 | 85 | 1009.9 |
| 20260506082034 | 11 | 347 | 4.8 | 8.0 | 0.00 | 0.00 | 0.00 | 85 | 1009.9 |
| 20260506081530 | -17 | 23 | 4.8 | 14.5 | 0.00 | 0.00 | 0.00 | 1010.1 | |
| 20260506081031 | -17 | 355 | 6.4 | 14.5 | 0.00 | 0.00 | 0.00 | 1010.0 | |
| 20260506080531 | 11 | 348 | 8.0 | 14.5 | 0.00 | 0.00 | 0.00 | 84 | 1010.1 |
| 20260506073528 | 11 | 13 | 3.2 | 9.7 | 0.00 | 0.00 | 0.00 | 84 | 1010.1 |
| 20260506073027 | 11 | 0 | 3.2 | 9.7 | 0.00 | 0.00 | 0.00 | 84 | 1010.1 |
| 20260506072528 | 12 | 35 | 3.2 | 6.4 | 0.00 | 0.00 | 0.00 | 83 | 1009.9 |
| 20260506072028 | 12 | 10 | 4.8 | 14.5 | 0.00 | 0.00 | 0.00 | 83 | 1010.1 |
| 20260506071528 | 12 | 10 | 4.8 | 14.5 | 0.00 | 0.00 | 0.00 | 83 | 1010.1 |
| 20260506071028 | 12 | 7 | 6.4 | 8.0 | 0.00 | 0.00 | 0.00 | 83 | 1010.1 |
| 20260506070528 | 12 | 27 | 3.2 | 8.0 | 0.00 | 0.00 | 0.00 | 83 | 1010.0 |
| 20260506062026 | 13 | 23 | 8.0 | 16.1 | 0.00 | 0.00 | 0.00 | 80 | 1009.9 |
| 20260506061527 | 13 | 38 | 11.3 | 16.1 | 0.00 | 0.00 | 0.00 | 79 | 1009.9 |
| 20260506061028 | 13 | 21 | 8.0 | 16.1 | 0.00 | 0.00 | 0.00 | 79 | 1009.8 |
| 20260506060602 | 13 | 23 | 9.7 | 17.7 | 0.00 | 0.00 | 0.00 | 78 | 1009.6 |
| 20260506051022 | 15 | 42 | 4.8 | 16.1 | 0.00 | 0.00 | 0.00 | 74 | 1008.9 |
| 20260506050523 | 15 | 68 | 8.0 | 16.1 | 0.00 | 0.00 | 0.00 | 74 | 1008.7 |
| 20260506044523 | 15 | 39 | 9.7 | 24.1 | 0.00 | 0.00 | 0.00 | 71 | 1008.5 |
| 20260506044319 | 15 | 31 | 14.5 | 24.1 | 0.00 | 0.00 | 0.00 | 70 | 1008.6 |
| 20260506043522 | 16 | 42 | 16.1 | 24.1 | 0.00 | 0.00 | 0.00 | 70 | 1008.5 |
| 20260506043021 | 16 | 42 | 16.1 | 20.9 | 0.00 | 0.00 | 0.00 | 69 | 1008.5 |
| 20260506042523 | 16 | 27 | 11.3 | 16.1 | 0.00 | 0.00 | 0.00 | 69 | 1008.7 |
| 20260506042313 | 16 | 27 | 11.3 | 16.1 | 0.00 | 0.00 | 0.00 | 69 | 1008.6 |
| 20260506041521 | 17 | 16 | 8.0 | 9.7 | 0.00 | 0.00 | 0.00 | 69 | 1008.6 |
| 20260506041021 | 17 | 30 | 4.8 | 11.3 | 0.00 | 0.00 | 0.00 | 68 | 1008.6 |
| 20260506040521 | 17 | 30 | 6.4 | 11.3 | 0.00 | 0.00 | 0.00 | 68 | 1008.7 |
| 20260506040020 | 17 | 16 | 6.4 | 22.5 | 0.00 | 0.00 | 0.00 | 67 | 1008.5 |
| 20260506035522 | 17 | 10 | 11.3 | 22.5 | 0.00 | 0.00 | 0.00 | 66 | 1008.6 |
| 20260506035020 | 17 | 28 | 11.3 | 16.1 | 0.00 | 0.00 | 0.00 | 66 | 1008.5 |
| 20260506034521 | 18 | 13 | 6.4 | 11.3 | 0.00 | 0.00 | 0.00 | 67 | 1008.5 |
| 20260506034020 | 18 | 25 | 8.0 | 11.3 | 0.00 | 0.00 | 0.00 | 67 | 1008.4 |
| 20260506033520 | 18 | 58 | 3.2 | 9.7 | 0.00 | 0.00 | 0.00 | 67 | 1008.3 |
| 20260506033022 | -17 | 24 | 6.4 | 9.7 | 0.00 | 0.00 | 0.00 | 1008.1 | |
| 20260506032804 | 19 | 51 | 4.8 | 9.7 | 0.00 | 0.00 | 0.00 | 65 | 1008.2 |
| 20260506032020 | 19 | 20 | 0.0 | 4.8 | 0.00 | 0.00 | 0.00 | 65 | 1008.2 |
| 20260506031520 | 19 | 20 | 3.2 | 6.4 | 0.00 | 0.00 | 0.00 | 65 | 1008.1 |
| 20260506031316 | 19 | 20 | 3.2 | 6.4 | 0.00 | 0.00 | 0.00 | 65 | 1008.0 |
| 20260506030521 | 19 | 18 | 3.2 | 8.0 | 0.00 | 0.00 | 0.00 | 64 | 1007.9 |
| 20260506030020 | 19 | 18 | 3.2 | 8.0 | 0.00 | 0.00 | 0.00 | 64 | 1007.9 |
| 20260506025520 | -17 | 25 | 6.4 | 9.7 | 0.00 | 0.00 | 0.00 | 1007.8 | |
| 20260506025019 | -17 | 42 | 4.8 | 9.7 | 0.00 | 0.00 | 0.00 | 1007.8 | |
| 20260506024519 | 20 | 42 | 1.6 | 6.4 | 0.00 | 0.00 | 0.00 | 63 | 1007.6 |
| 20260506024018 | 20 | 42 | 3.2 | 8.0 | 0.00 | 0.00 | 0.00 | 63 | 1007.7 |
| 20260506023813 | 20 | 42 | 6.4 | 8.0 | 0.00 | 0.00 | 0.00 | 62 | 1007.5 |
| 20260506023017 | 20 | 42 | 4.8 | 8.0 | 0.00 | 0.00 | 0.00 | 61 | 1007.5 |
| 20260506022519 | 20 | 42 | 3.2 | 8.0 | 0.00 | 0.00 | 0.00 | 61 | 1007.1 |
| 20260506022018 | 21 | 28 | 4.8 | 8.0 | 0.00 | 0.00 | 0.00 | 61 | 1007.1 |
| 20260506021520 | 21 | 28 | 6.4 | 8.0 | 0.00 | 0.00 | 0.00 | 61 | 1007.1 |
| 20260506021019 | 21 | 28 | 6.4 | 8.0 | 0.00 | 0.00 | 0.00 | 61 | 1007.0 |
| 20260506020518 | 21 | 34 | 3.2 | 8.0 | 0.00 | 0.00 | 0.00 | 60 | 1006.9 |
| 20260506020017 | 21 | 34 | 4.8 | 8.0 | 0.00 | 0.00 | 0.00 | 60 | 1006.9 |
| 20260506015518 | 21 | 42 | 6.4 | 8.0 | 0.00 | 0.00 | 0.00 | 59 | 1006.7 |
| 20260506015310 | 22 | 42 | 6.4 | 8.0 | 0.00 | 0.00 | 0.00 | 59 | 1006.8 |
| 20260506014519 | 22 | 48 | 3.2 | 6.4 | 0.00 | 0.00 | 0.00 | 58 | 1006.6 |
| 20260506014021 | 22 | 69 | 3.2 | 9.7 | 0.00 | 0.00 | 0.00 | 57 | 1006.5 |
| 20260506013517 | 22 | 41 | 6.4 | 11.3 | 0.00 | 0.00 | 0.00 | 57 | 1006.3 |
| 20260506013017 | 22 | 69 | 6.4 | 11.3 | 0.00 | 0.00 | 0.00 | 56 | 1006.3 |
| 20260506012519 | 23 | 35 | 6.4 | 14.5 | 0.00 | 0.00 | 0.00 | 55 | 1006.3 |
| 20260506012326 | 23 | 45 | 8.0 | 14.5 | 0.00 | 0.00 | 0.00 | 55 | 1006.3 |
| 20260506011519 | 23 | 47 | 9.7 | 14.5 | 0.00 | 0.00 | 0.00 | 55 | 1006.1 |
| 20260506011018 | 23 | 47 | 9.7 | 14.5 | 0.00 | 0.00 | 0.00 | 55 | 1006.0 |
| 20260506010525 | 23 | 42 | 4.8 | 9.7 | 0.00 | 0.00 | 0.00 | 52 | 1005.8 |
| 20260506010017 | -17 | 35 | 4.8 | 11.3 | 0.00 | 0.00 | 0.00 | 1005.7 | |
| 20260506005516 | 24 | 35 | 8.0 | 17.7 | 0.00 | 0.00 | 0.00 | 52 | 1005.7 |
| 20260506005017 | 24 | 25 | 12.9 | 17.7 | 0.00 | 0.00 | 0.00 | 52 | 1005.7 |
| 20260506004516 | 24 | 35 | 12.9 | 20.9 | 0.00 | 0.00 | 0.00 | 52 | 1005.8 |
| 20260506004017 | 25 | 45 | 14.5 | 20.9 | 0.00 | 0.00 | 0.00 | 52 | 1005.7 |
| 20260506003517 | 25 | 20 | 9.7 | 16.1 | 0.00 | 0.00 | 0.00 | 52 | 1005.4 |
| 20260506003310 | 25 | 21 | 6.4 | 20.9 | 0.00 | 0.00 | 0.00 | 51 | 1005.5 |
| 20260506002515 | 25 | 20 | 12.9 | 24.1 | 0.00 | 0.00 | 0.00 | 50 | 1005.4 |
| 20260506002015 | 26 | 34 | 17.7 | 24.1 | 0.00 | 0.00 | 0.00 | 50 | 1005.1 |
| 20260506001515 | 26 | 37 | 17.7 | 24.1 | 0.00 | 0.00 | 0.00 | 50 | 1005.1 |
| 20260506001017 | -17 | 23 | 14.5 | 19.3 | 0.00 | 0.00 | 0.00 | 1004.9 | |
| 20260506000515 | 27 | 28 | 11.3 | 17.7 | 0.00 | 0.00 | 0.00 | 46 | 1004.8 |
| 20260506000018 | 27 | 14 | 12.9 | 22.5 | 0.00 | 0.00 | 0.00 | 46 | 1004.8 |
| 20260505235515 | 27 | 37 | 16.1 | 22.5 | 0.00 | 0.00 | 0.00 | 45 | 1004.9 |
| 20260505235015 | 28 | 32 | 14.5 | 20.9 | 0.00 | 0.00 | 0.00 | 42 | 1004.6 |
| 20260505234516 | 28 | 35 | 4.8 | 11.3 | 0.00 | 0.00 | 0.00 | 40 | 1004.3 |
| 20260505234014 | 28 | 32 | 8.0 | 9.7 | 0.00 | 0.00 | 0.00 | 40 | 1004.1 |
| 20260505233516 | 28 | 334 | 6.4 | 9.7 | 0.00 | 0.00 | 0.00 | 38 | 1004.4 |
| 20260505233016 | 28 | 343 | 4.8 | 9.7 | 0.00 | 0.00 | 0.00 | 38 | 1004.4 |
| 20260505232517 | 29 | 20 | 8.0 | 14.5 | 0.00 | 0.00 | 0.00 | 38 | 1004.2 |
| 20260505232015 | 29 | 20 | 8.0 | 16.1 | 0.00 | 0.00 | 0.00 | 36 | 1004.1 |
| 20260505231514 | 29 | 18 | 9.7 | 17.7 | 0.00 | 0.00 | 0.00 | 36 | 1004.1 |
| 20260505231014 | 30 | 0 | 12.9 | 17.7 | 0.00 | 0.00 | 0.00 | 36 | 1004.2 |
| 20260505230515 | 30 | 319 | 8.0 | 24.1 | 0.00 | 0.00 | 0.00 | 37 | 1004.3 |
| 20260505230014 | 30 | 341 | 14.5 | 24.1 | 0.00 | 0.00 | 0.00 | 35 | 1004.3 |
| 20260505225515 | 30 | 345 | 14.5 | 22.5 | 0.00 | 0.00 | 0.00 | 34 | 1004.3 |
| 20260505225013 | 30 | 350 | 16.1 | 22.5 | 0.00 | 0.00 | 0.00 | 34 | 1004.3 |
| 20260505224811 | 31 | 358 | 11.3 | 17.7 | 0.00 | 0.00 | 0.00 | 34 | 1004.3 |
| 20260505224052 | 31 | 343 | 11.3 | 17.7 | 0.00 | 0.00 | 0.00 | 33 | 1004.1 |
| 20260505223015 | 31 | 326 | 8.0 | 22.5 | 0.00 | 0.00 | 0.00 | 31 | 1003.9 |
| 20260505222806 | 31 | 345 | 14.5 | 22.5 | 0.00 | 0.00 | 0.00 | 31 | 1003.9 |
| 20260505222013 | 32 | 343 | 12.9 | 20.9 | 0.00 | 0.00 | 0.00 | 31 | 1003.8 |
| 20260505221804 | 32 | 314 | 9.7 | 20.9 | 0.00 | 0.00 | 0.00 | 30 | 1003.6 |
| 20260505221016 | 32 | 4 | 12.9 | 22.5 | 0.00 | 0.00 | 0.00 | 29 | 1003.6 |
| 20260505220513 | 33 | 324 | 17.7 | 22.5 | 0.00 | 0.00 | 0.00 | 28 | 1003.2 |
| 20260505220012 | 33 | 275 | 8.0 | 14.5 | 0.00 | 0.00 | 0.00 | 28 | 1003.5 |
| 20260505215804 | 33 | 347 | 8.0 | 16.1 | 0.00 | 0.00 | 0.00 | 24 | 1003.6 |
| 20260505215305 | 33 | 269 | 8.0 | 16.1 | 0.00 | 0.00 | 0.00 | 24 | 1003.5 |
| 20260505214511 | 33 | 262 | 8.0 | 17.7 | 0.00 | 0.00 | 0.00 | 24 | 1003.5 |
| 20260505214013 | 33 | 230 | 9.7 | 22.5 | 0.00 | 0.00 | 0.00 | 25 | 1003.4 |
| 20260505213548 | 33 | 254 | 12.9 | 22.5 | 0.00 | 0.00 | 0.00 | 25 | 1003.4 |
| 20260505212512 | 33 | 293 | 6.4 | 22.5 | 0.00 | 0.00 | 0.00 | 27 | 1003.7 |
| 20260505212011 | 33 | 275 | 8.0 | 22.5 | 0.00 | 0.00 | 0.00 | 32 | 1003.7 |
| 20260505211510 | 33 | 189 | 14.5 | 22.5 | 0.00 | 0.00 | 0.00 | 31 | 1003.7 |
| 20260505211011 | 33 | 219 | 9.7 | 22.5 | 0.00 | 0.00 | 0.00 | 29 | 1003.8 |
| 20260505210802 | 33 | 172 | 12.9 | 25.7 | 0.00 | 0.00 | 0.00 | 29 | 1004.0 |
| 20260505210012 | 33 | 255 | 11.3 | 25.7 | 0.00 | 0.00 | 0.00 | 29 | 1004.0 |
| 20260505205511 | 33 | 220 | 8.0 | 29.0 | 0.00 | 0.00 | 0.00 | 30 | 1003.9 |
| 20260505205012 | -17 | 193 | 11.3 | 29.0 | 0.00 | 0.00 | 0.00 | 1004.0 | |
| 20260505204510 | 34 | 221 | 12.9 | 22.5 | 0.00 | 0.00 | 0.00 | 31 | 1004.0 |
| 20260505204252 | 34 | 210 | 11.3 | 24.1 | 0.00 | 0.00 | 0.00 | 31 | 1004.0 |
| 20260505203512 | 34 | 227 | 14.5 | 27.4 | 0.00 | 0.00 | 0.00 | 30 | 1004.0 |
| 20260505203011 | 34 | 226 | 12.9 | 27.4 | 0.00 | 0.00 | 0.00 | 29 | 1003.9 |
| 20260505202751 | -17 | 237 | 11.3 | 22.5 | 0.00 | 0.00 | 0.00 | 1004.0 | |
| 20260505202011 | 33 | 248 | 8.0 | 22.5 | 0.00 | 0.00 | 0.00 | 31 | 1004.1 |
| 20260505201508 | 33 | 204 | 11.3 | 20.9 | 0.00 | 0.00 | 0.00 | 31 | 1004.2 |
| 20260505201010 | 33 | 230 | 11.3 | 20.9 | 0.00 | 0.00 | 0.00 | 32 | 1004.4 |
| 20260505200509 | 33 | 230 | 11.3 | 20.9 | 0.00 | 0.00 | 0.00 | 33 | 1004.3 |
| 20260505200009 | 33 | 207 | 11.3 | 17.7 | 0.00 | 0.00 | 0.00 | 33 | 1004.5 |
| 20260505195542 | 33 | 179 | 9.7 | 17.7 | 0.00 | 0.00 | 0.00 | 36 | 1004.5 |
| 20260505194755 | 32 | 175 | 12.9 | 25.7 | 0.00 | 0.00 | 0.00 | 38 | 1004.6 |
| 20260505194011 | 32 | 164 | 12.9 | 19.3 | 0.00 | 0.00 | 0.00 | 36 | 1004.4 |
| 20260505193509 | 32 | 192 | 8.0 | 20.9 | 0.00 | 0.00 | 0.00 | 37 | 1004.6 |
| 20260505193010 | 32 | 216 | 14.5 | 20.9 | 0.00 | 0.00 | 0.00 | 37 | 1004.8 |
| 20260505192508 | 32 | 195 | 11.3 | 17.7 | 0.00 | 0.00 | 0.00 | 37 | 1004.7 |
| 20260505192010 | 32 | 250 | 8.0 | 17.7 | 0.00 | 0.00 | 0.00 | 38 | 1004.8 |
| 20260505191508 | 32 | 188 | 6.4 | 17.7 | 0.00 | 0.00 | 0.00 | 41 | 1004.8 |
| 20260505191008 | 31 | 234 | 8.0 | 20.9 | 0.00 | 0.00 | 0.00 | 41 | 1004.9 |
| 20260505190507 | 31 | 219 | 8.0 | 20.9 | 0.00 | 0.00 | 0.00 | 43 | 1004.9 |
| 20260505190008 | 31 | 244 | 11.3 | 17.7 | 0.00 | 0.00 | 0.00 | 42 | 1005.0 |
| 20260505185508 | 31 | 243 | 9.7 | 20.9 | 0.00 | 0.00 | 0.00 | 43 | 1004.9 |
| 20260505185007 | 31 | 155 | 12.9 | 20.9 | 0.00 | 0.00 | 0.00 | 42 | 1004.9 |
| 20260505184803 | 31 | 202 | 9.7 | 19.3 | 0.00 | 0.00 | 0.00 | 41 | 1005.2 |
| 20260505184010 | 31 | 230 | 9.7 | 19.3 | 0.00 | 0.00 | 0.00 | 41 | 1005.4 |
| 20260505183758 | 31 | 268 | 9.7 | 16.1 | 0.00 | 0.00 | 0.00 | 45 | 1005.4 |
| 20260505183007 | 31 | 251 | 9.7 | 17.7 | 0.00 | 0.00 | 0.00 | 45 | 1005.6 |
| 20260505182506 | 31 | 221 | 9.7 | 19.3 | 0.00 | 0.00 | 0.00 | 44 | 1005.7 |
| 20260505182006 | 31 | 235 | 12.9 | 19.3 | 0.00 | 0.00 | 0.00 | 46 | 1005.8 |
| 20260505181506 | 30 | 183 | 9.7 | 16.1 | 0.00 | 0.00 | 0.00 | 46 | 1005.8 |
| 20260505181007 | 30 | 244 | 11.3 | 22.5 | 0.00 | 0.00 | 0.00 | 47 | 1005.8 |
| 20260505180507 | 30 | 224 | 8.0 | 22.5 | 0.00 | 0.00 | 0.00 | 49 | 1005.8 |
| 20260505180006 | 30 | 185 | 8.0 | 20.9 | 0.00 | 0.00 | 0.00 | 46 | 1005.9 |
| 20260505175506 | 30 | 235 | 11.3 | 17.7 | 0.00 | 0.00 | 0.00 | 48 | 1005.9 |
| 20260505175252 | 30 | 231 | 8.0 | 17.7 | 0.00 | 0.00 | 0.00 | 48 | 1005.9 |
| 20260505174507 | 29 | 231 | 8.0 | 17.7 | 0.00 | 0.00 | 0.00 | 48 | 1005.8 |
| 20260505174006 | 29 | 302 | 9.7 | 20.9 | 0.00 | 0.00 | 0.00 | 49 | 1005.9 |
| 20260505173506 | 29 | 214 | 11.3 | 20.9 | 0.00 | 0.00 | 0.00 | 51 | 1005.8 |
| 20260505173005 | 29 | 233 | 12.9 | 19.3 | 0.00 | 0.00 | 0.00 | 51 | 1005.8 |
| 20260505172506 | 28 | 241 | 11.3 | 22.5 | 0.00 | 0.00 | 0.00 | 50 | 1005.8 |
| 20260505172005 | 28 | 230 | 11.3 | 22.5 | 0.00 | 0.00 | 0.00 | 52 | 1005.9 |
| 20260505171842 | 28 | 272 | 12.9 | 22.5 | 0.00 | 0.00 | 0.00 | 50 | 1005.8 |
| 20260505170504 | 28 | 269 | 12.9 | 24.1 | 0.00 | 0.00 | 0.00 | 55 | 1005.7 |
| 20260505170005 | 28 | 217 | 12.9 | 24.1 | 0.00 | 0.00 | 0.00 | 57 | 1005.8 |
| 20260505165503 | 28 | 166 | 9.7 | 22.5 | 0.00 | 0.00 | 0.00 | 59 | 1005.8 |
| 20260505165004 | 27 | 237 | 11.3 | 22.5 | 0.00 | 0.00 | 0.00 | 58 | 1005.8 |
| 20260505164504 | 27 | 159 | 11.3 | 22.5 | 0.00 | 0.00 | 0.00 | 58 | 1005.7 |
| 20260505164006 | 27 | 206 | 11.3 | 24.1 | 0.00 | 0.00 | 0.00 | 57 | 1005.8 |
| 20260505163506 | 27 | 231 | 16.1 | 24.1 | 0.00 | 0.00 | 0.00 | 57 | 1005.8 |
| 20260505163008 | 27 | 237 | 14.5 | 25.7 | 0.00 | 0.00 | 0.00 | 57 | 1005.9 |
| 20260505162504 | 27 | 226 | 16.1 | 27.4 | 0.00 | 0.00 | 0.00 | 57 | 1006.0 |
| 20260505162004 | 26 | 264 | 17.7 | 27.4 | 0.00 | 0.00 | 0.00 | 59 | 1006.0 |
| 20260505161504 | 26 | 226 | 16.1 | 25.7 | 0.00 | 0.00 | 0.00 | 62 | 1005.9 |
| 20260505161004 | 26 | 220 | 11.3 | 25.7 | 0.00 | 0.00 | 0.00 | 63 | 1006.0 |
| 20260505160503 | 26 | 231 | 14.5 | 25.7 | 0.00 | 0.00 | 0.00 | 64 | 1006.0 |
| 20260505153002 | 25 | 243 | 12.9 | 24.1 | 0.00 | 0.00 | 0.00 | 69 | 1005.6 |
| 20260505152502 | 25 | 233 | 12.9 | 30.6 | 0.00 | 0.00 | 0.00 | 70 | 1005.7 |
| 20260505152002 | 24 | 213 | 12.9 | 30.6 | 0.00 | 0.00 | 0.00 | 70 | 1005.7 |
| 20260505151757 | 24 | 228 | 16.1 | 29.0 | 0.00 | 0.00 | 0.00 | 70 | 1005.6 |
| 20260505151004 | 24 | 251 | 16.1 | 29.0 | 0.00 | 0.00 | 0.00 | 72 | 1005.6 |
| 20260505150504 | 24 | 233 | 16.1 | 27.4 | 0.00 | 0.00 | 0.00 | 71 | 1005.5 |
| 20260505150259 | -17 | 221 | 14.5 | 27.4 | 0.00 | 0.00 | 0.00 | 1005.2 | |
| 20260505140500 | 22 | 212 | 14.5 | 27.4 | 0.00 | 0.00 | 0.00 | 77 | 1004.8 |
| 20260505130243 | 20 | 206 | 17.7 | 29.0 | 0.00 | 0.00 | 0.00 | 81 | 1004.3 |
| 20260505124958 | -17 | 224 | 16.1 | 32.2 | 0.00 | 0.00 | 0.00 | 1004.2 | |
| 20260505124457 | -17 | 202 | 14.5 | 27.4 | 0.00 | 0.00 | 0.00 | 1004.1 | |
| 20260505123958 | -17 | 186 | 14.5 | 29.0 | 0.00 | 0.00 | 0.00 | 1004.1 | |
| 20260505123458 | -17 | 188 | 16.1 | 29.0 | 0.00 | 0.00 | 0.00 | 1004.2 | |
| 20260505122957 | 19 | 230 | 14.5 | 27.4 | 0.00 | 0.00 | 0.00 | 84 | 1004.1 |
| 20260505122526 | 19 | 182 | 11.3 | 24.1 | 0.00 | 0.00 | 0.00 | 84 | 1004.1 |
| 20260505121457 | 19 | 234 | 11.3 | 20.9 | 0.00 | 0.00 | 0.00 | 85 | 1004.0 |
| 20260505120957 | 19 | 259 | 11.3 | 27.4 | 0.00 | 0.00 | 0.00 | 85 | 1003.9 |
| 20260505120458 | 19 | 209 | 9.7 | 27.4 | 0.00 | 0.00 | 0.00 | 84 | 1003.9 |
| 20260505120023 | -17 | 183 | 11.3 | 20.9 | 0.00 | 0.00 | 0.00 | 1003.9 | |
| 20260505115244 | -17 | 224 | 11.3 | 14.5 | 0.00 | 0.00 | 0.00 | 1003.9 | |
| 20260505114456 | 19 | 195 | 11.3 | 24.1 | 0.00 | 0.00 | 0.00 | 84 | 1003.8 |
| 20260505113955 | 19 | 195 | 11.3 | 30.6 | 0.00 | 0.00 | 0.00 | 84 | 1003.7 |
| 20260505113745 | 19 | 207 | 14.5 | 30.6 | 0.00 | 0.00 | 0.00 | 84 | 1003.6 |
| 20260505112953 | 19 | 248 | 12.9 | 27.4 | 0.00 | 0.00 | 0.00 | 84 | 1003.6 |
| 20260505112747 | 19 | 217 | 14.5 | 27.4 | 0.00 | 0.00 | 0.00 | 84 | 1003.6 |
| 20260505111953 | 19 | 209 | 16.1 | 29.0 | 0.00 | 0.00 | 0.00 | 83 | 1003.5 |
| 20260505111455 | 19 | 224 | 17.7 | 29.0 | 0.00 | 0.00 | 0.00 | 83 | 1003.6 |
| 20260505110954 | 19 | 209 | 14.5 | 24.1 | 0.00 | 0.00 | 0.00 | 83 | 1003.6 |
| 20260505110748 | 19 | 197 | 14.5 | 29.0 | 0.00 | 0.00 | 0.00 | 83 | 1003.5 |